Location: Latham
(42.7470°N, 73.7590°W)
Time: 14:24:58
(UTC+00:00)

Daily predictions for brighter satellites

Satellite Brightness Start Highest point End
(mag) Time Altitude Azimuth Time Altitude Azimuth Time Altitude Azimuth
Meteor 1-25 Rocket 4.2 21:41:55 10° N 21:47:31 73° E 21:53:08 10° SSE
Cosmos 540 Rocket 3.5 21:45:09 10° SSW 21:50:15 86° ESE 21:55:24 10° NNE
NOAA 6 4.3 21:46:34 10° SE 21:51:25 45° ENE 21:56:17 10° N
USA 234 3.7 21:45:36 10° E 21:51:40 42° NNE 21:57:43 10° NW
CZ-2C R/B 3.9 21:51:36 10° NE 21:55:08 18° E 21:58:40 10° SE
Cosmos 1782 3.0 21:51:20 10° S 21:55:13 53° E 21:59:07 10° NNE
Cosmos 1743 Rocket 3.8 21:51:04 10° N 21:55:23 77° W 21:59:43 10° S
COSMOS 2406 3.5 21:51:17 10° SSW 21:57:02 75° WNW 22:02:47 10° NNE
Cosmos 858 Rocket 4.5 21:54:06 10° NNW 21:59:25 81° ENE 22:04:40 10° SSE
NOSS 2-2 (D) 4.5 21:56:17 10° NNW 22:01:38 71° NE 22:09:10 10° SE
SL-24 R/B - RUBIN 2 3.5 21:58:48 10° NNW 22:03:18 70° NE 22:07:34 10° SE
Cosmos 2279 Rocket 4.3 21:59:53 10° SSE 22:05:40 43° E 22:11:28 10° NNE
CZ-4C R/B 3.1 21:58:33 10° NNW 22:05:42 58° NE 22:14:00 10° SE
Cosmos 1666 Rocket 4.1 22:02:32 10° N 22:06:40 37° ENE 22:10:43 10° SE
Cosmos 1666 3.4 22:03:41 10° NNE 22:06:59 29° ENE 22:10:16 10° SE
Cosmos 1627 Rocket 4.4 22:00:51 10° N 22:07:00 74° E 22:13:06 10° SSE
USA 307 4.5 22:05:03 10° NW 22:08:13 20° N 22:11:04 11° NE
Okean O Rocket 3.0 22:07:45 10° ESE 22:10:50 19° ENE 22:13:56 10° NNE
CZ-4B R/B 3.9 22:07:10 10° ESE 22:11:44 29° ENE 22:16:16 10° N
SMAP 3.0 22:07:24 10° SSE 22:12:01 70° ENE 22:16:40 10° N
Meteor 2-14 Rocket 4.4 22:06:27 10° N 22:12:34 74° E 22:18:36 10° SSE
Lacrosse 5 rocket 2.1 22:14:07 10° NNW 22:17:38 31° NE 22:20:52 12° E
Cosmos 1814 Rocket 4.0 22:13:25 10° S 22:18:36 71° ESE 22:23:46 10° NNE
PAYLOAD B 4.4 22:17:40 10° SE 22:23:06 53° ENE 22:28:31 10° N
Cosmos 1570 Rocket 4.0 22:18:01 10° S 22:23:12 68° ESE 22:28:25 10° NNE
Sich 1 3.2 22:20:07 10° NNW 22:24:26 76° W 22:28:45 10° S
SKYMED 2 4.4 22:21:20 10° NE 22:25:08 29° E 22:28:55 10° SSE
CZ-2C R/B 3.1 22:22:23 10° SW 22:25:49 23° SSE 22:29:10 10° ESE
Cosmos 1634 Rocket 4.1 22:20:35 10° S 22:26:55 83° W 22:33:17 10° N
Cosmos 2360 Rocket 3.7 22:23:56 10° N 22:27:16 16° NE 22:28:09 15° NE
MOS 1-B Rocket 4.3 22:22:00 10° NNE 22:28:02 55° ESE 22:34:58 10° S
Cosmos 2026 Rocket 4.1 22:22:53 10° N 22:29:01 78° W 22:35:03 10° S
USA 308 4.3 22:27:41 10° NW 22:31:05 22° NNE 22:32:48 18° NE
PSLV R/B 3.6 22:27:39 10° SSE 22:31:17 63° ENE 22:35:01 10° N
ISS -3.3 22:28:35 10° WNW 22:31:57 64° SW 22:35:18 10° SE
Cosmos 44 Rocket 3.5 22:27:41 10° NNW 22:32:26 47° NE 22:37:01 10° SE
deb Chang Zheng 4 4.2 22:29:13 10° SE 22:33:05 33° ENE 22:36:58 10° N
Cosmos 1812 2.7 22:31:42 10° S 22:35:32 85° W 22:39:24 10° N
Meteor 2-21 Rocket 4.4 22:33:58 10° N 22:40:06 89° E 22:46:09 10° S
Aureole 3 Rocket 4.4 22:39:53 10° SE 22:43:35 26° E 22:47:34 13° NNE
Cosmos 1544 3.7 22:42:33 10° NNE 22:45:49 31° ENE 22:49:04 10° SE
Cosmos 1818 3.5 22:40:45 10° NNW 22:46:13 63° NE 22:51:36 10° SE
Cosmos 2322 Rocket 2.8 22:44:52 10° N 22:50:00 33° NE 22:52:57 21° ESE
Cosmos 1515 Rocket 3.8 22:47:18 10° SSE 22:51:30 44° E 22:54:13 20° NNE
Meteor 1-10 Rocket 4.3 22:47:11 10° S 22:52:49 59° E 22:58:23 10° NNE
Cosmos 1980 Rocket 3.1 22:48:20 10° NW 22:53:48 52° WSW 22:59:13 10° S
Meteor 1-11 Rocket 4.0 22:50:34 10° N 22:56:00 45° ENE 23:01:30 10° SSE
USA 305 3.9 22:52:24 10° NW 22:56:08 29° NNE 22:56:42 28° NE
Cosmos 1356 Rocket 3.9 22:53:09 10° N 22:57:06 38° ENE 23:01:05 10° SE
Cosmos 921 Rocket 2.8 22:53:52 10° SSW 22:58:02 80° ESE 23:00:52 21° NNE
APEX 2.9 22:54:30 10° SSW 22:58:22 65° ESE 22:59:13 45° NE
SJ-11-01 4.3 22:54:39 10° SSE 22:59:18 59° ENE 23:03:58 10° N
Cosmos 2208 Rocket 4.3 22:56:08 10° SSW 23:01:31 72° WNW 23:06:56 10° NNE
Cosmos 2180 Rocket 4.5 22:55:22 10° S 23:01:42 89° ESE 23:08:00 10° N
USA 267 3.7 22:56:58 18° NE 23:01:52 54° NNW 23:08:10 10° WSW
Cosmos 1655 Rocket 4.0 22:58:05 10° N 23:04:27 66° E 23:10:44 10° SSE
Tiangong 3.3 23:02:29 10° S 23:04:10 15° SSE 23:04:10 15° SSE
COSMOS 2455 4.2 22:59:07 10° WSW 23:04:33 34° NW 23:10:01 10° NNE
DEBRIS 3.4 23:03:28 10° SSW 23:05:48 35° SE 23:05:58 35° SE
Cosmos 2150 Rocket 3.9 23:01:46 10° NNW 23:06:57 66° ENE 23:12:10 10° SSE
CZ-4 R/B 4.3 23:03:28 10° SSE 23:07:32 64° ENE 23:11:39 10° N
YAOGAN 3 4.4 23:03:19 10° SSE 23:07:38 69° ENE 23:11:59 10° N
Cosmos 1867 3.8 23:03:49 10° S 23:09:02 49° ESE 23:10:44 37° ENE
SL-16 R/B 2.2 23:04:34 10° NNW 23:10:12 60° ENE 23:15:47 10° SE
H-2A R/B 2.4 23:05:24 10° S 23:10:30 65° WSW 23:15:31 10° NNW
Cosmos 2082 Rocket 3.7 23:05:35 10° WSW 23:10:41 34° NW 23:15:48 10° N
ARGOS 3.0 23:07:13 10° SSE 23:12:38 79° ENE 23:18:03 10° N
COSMO-SKYMED 1 2.5 23:09:47 15° N 23:13:20 84° WNW 23:17:40 10° SSW
Feng Yun 1-1 Rocket 4.4 23:09:21 10° SE 23:15:05 55° ENE 23:20:47 10° N
Cosmos 1125 Rocket 3.4 23:10:13 10° NNW 23:15:29 73° ENE 23:20:45 10° SSE
Cosmos 1633 Rocket 4.1 23:11:25 10° NNW 23:15:38 47° W 23:19:51 10° SSW
USA 32 4.0 23:11:29 10° SSE 23:16:35 58° E 23:19:45 23° NNE
Landsat 5 3.2 23:23:02 54° NNE 23:23:56 88° ESE 23:27:50 10° SSW
X-37B 1.8 23:21:10 10° WSW 23:23:02 36° SW 23:23:02 36° SW
SL-08 RB Rocket 3.6 23:19:37 10° SSE 23:24:13 72° ENE 23:28:49 10° N
Cosmos 2333 Rocket 3.9 23:23:38 10° N 23:25:38 18° NNE 23:25:38 18° NNE
USA 306 3.8 23:24:34 10° NW 23:27:42 35° N 23:27:42 35° N
USA 234 3.4 23:28:31 13° SE 23:34:24 73° SW 23:40:57 10° NW
CZ-2C R/B 3.2 23:30:44 10° N 23:35:47 55° WNW 23:40:49 10° SSW
ATLAS 2AS CENTAUR R/B 4.4 23:32:07 10° NNW 23:36:53 18° NNE 23:36:57 18° NNE
Cosmos 2219 Rocket 4.2 23:34:56 10° N 23:35:57 14° N 23:35:57 14° N
Cosmos 1933 Rocket 3.7 23:37:49 10° NNW 23:42:09 69° W 23:46:26 10° S
NOSS 3-3 (A) 3.7 23:37:30 10° SSW 23:43:01 67° ESE 23:43:33 64° E
NOSS 3-3 (C) 3.7 23:37:36 10° SSW 23:43:08 67° ESE 23:43:37 64° E
Okean O Rocket 2.7 23:42:34 10° S 23:46:50 46° W 23:51:08 10° NNW
USA 307 4.3 23:44:45 10° NW 23:47:06 29° NNW 23:47:06 29° NNW
DMSP 5D-2 F-14 4.5 23:43:47 10° SSE 23:49:13 81° ENE 23:54:40 10° NNW
CZ-4B R/B 4.5 23:47:07 10° SSW 23:52:08 39° W 23:57:07 10° NNW
ATLAS 5 CENTAUR R/B 3.6 23:52:22 10° NW 23:54:52 26° NW 23:54:52 26° NW
